This is the latest recevied weather packets stored in our database for station/object KC2TER. If no packets are shown the sender has not sent any weather packets the latest 10 day(s).
| Time | Temp. | Humidity | Pressure | Rain* | Wind** | Luminosity | Snow |
|---|---|---|---|---|---|---|---|
| 1778255770 | 16.67° C | 42% | 1012.9 hPa | 0 mm | - | 236 W/m² | - |
| 1778255466 | 16.67° C | 41% | 1013 hPa | 0 mm | - | 822 W/m² | - |
| 1778255163 | 16.67° C | 42% | 1013 hPa | 0 mm | - | 759 W/m² | - |
| 1778254860 | 16.67° C | 41% | 1013.2 hPa | 0 mm | - | 696 W/m² | - |
| 1778254557 | 16.67° C | 44% | 1013.2 hPa | 0 mm | - | 758 W/m² | - |
| 1778254254 | 16.67° C | 42% | 1013.4 hPa | 0 mm | - | 206 W/m² | - |
| 1778253951 | 16.11° C | 41% | 1013.3 hPa | 0 mm | - | 739 W/m² | - |
| 1778253646 | 16.11° C | 42% | 1013.2 hPa | 0 mm | - | 718 W/m² | - |
| 1778253343 | 15.56° C | 43% | 1013.5 hPa | 0 mm | - | 744 W/m² | - |
| 1778253040 | 16.11° C | 45% | 1013.6 hPa | 0 mm | - | 302 W/m² | - |
| 1778252737 | 16.11° C | 45% | 1013.5 hPa | 0 mm | - | 433 W/m² | - |
| 1778252433 | 16.11° C | 45% | 1013.4 hPa | 0 mm | - | 792 W/m² | - |
| 1778252130 | 15.56° C | 47% | 1013.4 hPa | 0 mm | - | 816 W/m² | - |
| 1778251826 | 15° C | 46% | 1013.5 hPa | 0 mm | - | 601 W/m² | - |
| 1778251524 | 15.56° C | 46% | 1013.5 hPa | 0 mm | - | 624 W/m² | - |
| 1778251221 | 15° C | 47% | 1013.5 hPa | 0 mm | - | 559 W/m² | - |
| 1778250919 | 15.56° C | 48% | 1013.6 hPa | 0 mm | - | 91 W/m² | - |
| 1778250615 | 15° C | 50% | 1013.4 hPa | 0 mm | - | 132 W/m² | - |
| 1778250312 | 14.44° C | 51% | 1013.5 hPa | 0 mm | - | 83 W/m² | - |
| 1778250009 | 15° C | 49% | 1013.6 hPa | 0 mm | - | 180 W/m² | - |
| 1778249705 | 14.44° C | 49% | 1013.4 hPa | 0 mm | - | 95 W/m² | - |
| 1778249403 | 13.89° C | 53% | 1013.7 hPa | 0 mm | - | 74 W/m² | - |
| 1778249100 | 13.89° C | 52% | 1013.5 hPa | 0 mm | - | 134 W/m² | - |
| 1778248795 | 13.33° C | 54% | 1013.8 hPa | 0 mm | - | 553 W/m² | - |
| 1778248492 | 13.89° C | 55% | 1013.5 hPa | 0 mm | - | 234 W/m² | - |
* Rain latest hour (hover to see other rain measurements)
** Current wind speed in m/s (hover to see current wind gust speed)